User: anonymous   Login
Location: DARK SKY Beskydy - Park tmavé oblohy, www.darkskybeskydy.cz
(49.4926°N, 18.5016°E)
Time: 10:51:34
(UTC+01:00)
Language:

Vanguard 3 - Orbit

View from above orbital plane
View from above orbital plane
View from above satellite
View from above satellite

Ground track
Ground track

The orbit data is extracted from the following two-line orbital elements,

1 00020U 59007A   24055.93685640  .00001651  00000-0  65532-3 0  9997
2 00020  33.3519  55.3915 1654964 223.9939 121.6577 11.58167409386635
Epoch (UTC): 24 February 2024 22:29:04
Eccentricity: 0.1654964
inclination: 33.3519°
perigee height: 508 km
apogee height: 3239 km
right ascension of ascending node: 55.3915°
argument of perigee: 223.9939°
revolutions per day: 11.58167409
mean anomaly at epoch: 121.6577°
orbit number at epoch: 38663

The dashed part of the orbit path shows where the satellite is in the earth's shadow,  

DLR